Regional Weather Roundup
Issued by NWS Cleveland, OH

Home | Current Version | Previous Version | Text Only | Print | Product List | Glossary Off
Versions: 1 2 3 4 5 6 7 8 9 10 11 12 13 14 15 16 17 18 19 20 21 22 23 24 25 26 27 28 29 30 31 32 33 34 35 36 37 38 39 40 41 42 43 44 45 46 47 48 49 50

000
ASUS41 KCLE 250502
RWRCLE
OHIO REGIONAL WEATHER ROUNDUP
NATIONAL WEATHER SERVICE CLEVELAND, OH
1200 AM EST THU DEC 25 2014

NOTE: "FAIR" INDICATES FEW OR NO CLOUDS BELOW 12,000 FEET WITH NO
SIGNIFICANT WEATHER AND/OR OBSTRUCTIONS TO VISIBILITY.

OHZ001>008-015>018-024>027-034-035-043-044-250600-
   NORTHWEST OHIO

CITY           SKY/WX    TMP DP  RH WIND       PRES   REMARKS
DEFIANCE       CLOUDY    38  33  82 SW14G22   29.59R
FINDLAY        CLOUDY    39  34  82 SW18G28   29.60R
TOLEDO EXPRESS CLOUDY    37  34  89 SW17G24   29.55R
TOLEDO EXEC    CLOUDY    39  34  82 SW22G29   29.56R
LIMA           CLOUDY    39  34  82 SW21G28   29.62R
$$

OHZ009>014-019>023-028>033-038-089-250600-
   NORTHEAST OHIO

CITY           SKY/WX    TMP DP  RH WIND       PRES   REMARKS
CLE-HOPKINS    CLOUDY    40  34  79 SW26G37   29.58R
CLE-LAKEFRONT  CLOUDY    42  34  73 SW33G41   29.54R
CUY CO. ARPT   NOT AVBL
LORAIN-ELYRIA  LGT RAIN  39  34  82 W29G36    29.58R
ASHTABULA      CLOUDY    41  34  76 SW18G25   29.52R
AKRON-CANTON   CLOUDY    41  33  73 W20G29    29.59R
WOOSTER        CLOUDY    39  34  82 W17G24    29.60R
MANSFIELD      CLOUDY    37  33  85 MISG      29.60R
YOUNGSTOWN     CLOUDY    41  34  76 SW21G26   29.55R
$$

OHZ042-051>053-060>062-070>072-077>081-250600-
  SOUTHWEST OHIO

CITY           SKY/WX    TMP DP  RH WIND       PRES   REMARKS
CINC-COVINGTON CLOUDY    39  33  79 SW7G17    29.74R
CINC-LUNKEN    CLOUDY    39  36  89 SW14      29.76R
HAMILTON       CLOUDY    40  35  83 SW12G18   29.74R
DAYTON         CLOUDY    39  35  86 SW16      29.69R
WRIGHT-PAT AFB CLOUDY    39  35  85 SW18      29.69R
DAYTON GENERAL CLOUDY    39  34  82 SW16G22   29.69S
WILMINGTON     CLOUDY    38  33  82 SW16      29.70R
$$

OHZ036-037-039>041-045>050-054>059-063>069-073>076-082>088-250600-
  CENTRAL AND SOUTHEAST OHIO

CITY           SKY/WX    TMP DP  RH WIND       PRES   REMARKS
COLUMBUS       CLOUDY    39  32  76 SW17G23   29.69R
OSU AIRPORT    CLOUDY    39  33  79 SW15      29.68R
BOLTON FIELD   NOT AVBL
RICKENBACK AFB NOT AVBL
NEWARK         CLOUDY    41  33  73 SW16      29.68R
MARION         CLOUDY    39  33  79 SW16      29.64R
LANCASTER      PTCLDY    39  34  82 W13G22    29.71R
ZANESVILLE     CLOUDY    40  34  79 SW10G18   29.68R
NEW PHILLY     CLOUDY    43  34  70 SW10      29.64R
$$


USA.gov is the U.S. government's official web portal to all federal, state and local government web resources and services.